Погода в Эшпозенди

Португалия     41°32′28″N   8°46′55″W
темп.,
°C
ветер,
м/с
пор.,
м/с
влажн.,
%
обл.,
%
осадки,
мм/ч
давл.,
гПа
погр.,
м
14 апреля, ср
ср1401:00+14в2385100 0.3 101947
04:00+14всв2383100 0.0 101758
07:00+14всв3380100 0.0 101669
10:00+17в3465100 0.0 1017254
13:00+21сз1353100 0.0 10151007
16:00+19сз566099 0.0 1013821
19:00+17ссз4673100 0.0 1013142
22:00+16ссв3376100 0.0 101441
15 апреля, чт
чт1501:00+14св3476100 0.0 101351
04:00+14всв487042 0.0 1013138
07:00+12всв5106153 0.0 1013198
10:00+17в48403 0.0 1015306
13:00+21в13405 0.0 1015937
16:00+18сз57562 0.0 1014365
19:00+17ссз47707 0.0 1014210
22:00+13с22800 0.0 101525
16 апреля, пт
пт1601:00+13в22800 0.0 101521
04:00+12в22780 0.0 101552
07:00+10в465944 0.0 1016121
10:00+15в463798 0.0 1017316
13:00+19с1237100 0.0 1017651
16:00+18сз434925 0.0 1017808
19:00+16ссз46585 0.0 1017170
22:00+13св2265100 0.0 101818
17 апреля, сб
сб1701:00+12всв3367100 0.0 101859
04:00+12в51155100 0.0 1018328
07:00+9в595751 0.0 1020207
10:00+14в45375 0.0 1021399
13:00+18з12385 0.0 1021764
16:00+16сз55518 0.0 1020438
19:00+15ссз576054 0.0 1021286
22:00+12с3374100 0.0 102392
18 апреля, вс
вс1801:00+11всв2268100 0.0 102246
04:00+11в1168100 0.0 102244
07:00+12вюв2267100 0.0 102255
10:00+15ю1255100 0.0 1023263
13:00+16юз2254100 0.0 1023337
16:00+15з225797 0.0 1022305
19:00+15з226543 0.0 1022155
22:00+14зсз2271100 0.0 102350